Location: Remedello Sotto
(45.2500°N, 10.3667°E)
Time: 05:31:08
(UTC+00:00)

CZ-4B R/B - Pass Details

Date: 03 February 2023
Orbit: 474 x 640 km, 97.9° (Epoch: 29 March)

Event Time Altitude Azimuth Distance (km) Brightness Sun altitude
Rises 16:55:25 0° 157° (SSE) 2,810 6.4 -5.3°
Reaches altitude 10° 16:57:38 10° 154° (SSE) 1,887 5.5 -5.7°
Maximum altitude 17:01:39 61° 74° (ENE) 635 2.9 -6.4°
Drops below altitude 10° 17:05:29 10° 354° (N) 1,799 5.3 -7.0°
Sets 17:07:34 0° 351° (N) 2,667 6.3 -7.4°
